Location: Spor
(46.2167°N, 11.0500°E)
Time: 15:37:19
(UTC+00:00)

BREEZE-M DEB (TANK) - Pass Details

Date: 07 June 2020
Orbit: 324 x 12053 km, 49.6° (Epoch: 09 July)

Event Time Altitude Azimuth Distance (km) Brightness Sun altitude
Rises 01:23:50 0° 286° (WNW) 2,390 5.2 -15.1°
Reaches altitude 10° 01:26:00 10° 294° (WNW) 1,297 4.0 -14.9°
Maximum altitude 01:28:17 42° 9° (N) 481 2.3 -14.7°
Drops below altitude 10° 01:30:53 10° 85° (E) 1,464 4.8 -14.4°
Sets 01:33:30 0° 93° (E) 2,788 6.2 -14.2°
